User: anonymous   Login
Location: Unspecified
(0.0000°N, 0.0000°E)
Time: 11:02:55
(UTC+00:00)
Language:

UWE-1 - Orbit

View from above orbital plane
View from above orbital plane
View from above satellite
View from above satellite

Ground track
Ground track

The orbit data is extracted from the following two-line orbital elements,

1 28892U 05043C   17351.66605304  .00000180  00000-0  43579-4 0  9999
2 28892  97.8899 144.4034 0015035 284.1985  75.7547 14.63430462647423
Epoch (UTC): 17 December 2017 15:59:06
Eccentricity: 0.0015035
inclination: 97.8899°
perigee height: 671 km
apogee height: 693 km
right ascension of ascending node: 144.4034°
argument of perigee: 284.1985°
revolutions per day: 14.63430462
mean anomaly at epoch: 75.7547°
orbit number at epoch: 64742

The dashed part of the orbit path shows where the satellite is in the earth's shadow,  

DLR